Home   Weather   Seoul   Past weeks
Flag for South Korea

Past Weather in Seoul, South Korea — Yesterday and Last 2 Weeks

Now
75 °F

Broken clouds.


Feels Like: 77 °F
Forecast: 79 / 65 °F
Wind: 9 mph from West

Location: Seoul / Kimp'O International Airport

Current Time: Jun 20, 2019 at 6:29:29 pm

Latest Report: Jun 20, 2019 at 5:00 pm


Visibility: N/A

Pressure: 29.68 "Hg

Humidity: 65%

Dew Point: 63 °F

Location of SeoulLocation

Past Weather in Seoul — Graph

°F

Seoul Temperature Yesterday

Maximum temperature yesterday: 79 °F (at 2:00 pm)
Minimum temperature yesterday: 66 °F (at 6:00 am)
Average temperature yesterday: 71 °F

High & Low Weather Summary for the Past Weeks

 TemperatureHumidityPressure
High82 °F (Jun 13, 4:00 pm)100% (Jun 6, 1:00 am)29.92 "Hg (Jun 6, 1:00 am)
Low57 °F (Jun 8, 5:00 am)37% (Jun 14, 2:00 pm)29.45 "Hg (Jun 15, 4:00 pm)
Average70 °F74%29.75 "Hg
* Reported Jun 5 5:00 pm — Jun 20 5:00 pm, Seoul. Weather by CustomWeather, © 2019

Note: Actual official high and low records may vary slightly from our data, if they occured in-between our weather recording intervals... More about our weather records

Advertising

Seoul Weather History for the Previous 24 Hours

Scroll right to see more
 ConditionsComfort  
Time TempWeatherWind HumidityBarometerVisibility
5:00 pm
Thu, Jun 20
75 °FBroken clouds.9 mph65%29.68 "HgN/A
4:00 pm79 °FScattered clouds.6 mph61%29.68 "HgN/A
3:00 pm77 °FBroken clouds.12 mph65%29.71 "HgN/A
2:00 pm79 °FBroken clouds.8 mph58%29.71 "HgN/A
1:00 pm79 °FBroken clouds.3 mph54%29.74 "HgN/A
12:00 pm79 °FPartly sunny.6 mph58%29.74 "HgN/A
11:00 am77 °FPartly sunny.7 mph61%29.77 "HgN/A
10:00 am75 °FPartly sunny.9 mph65%29.77 "HgN/A
9:00 am73 °FPartly sunny.6 mph78%29.77 "HgN/A
8:00 am70 °FPartly sunny.6 mph88%29.77 "Hg5 mi
7:00 am70 °FBroken clouds.5 mph88%29.77 "Hg4 mi
6:00 am68 °FBroken clouds.3 mph94%29.74 "Hg4 mi
5:00 am68 °FPartly cloudy.3 mph94%29.74 "Hg4 mi
4:00 am68 °FPartly cloudy.5 mph88%29.74 "Hg5 mi
3:00 am68 °FMostly cloudy.5 mph94%29.74 "Hg5 mi
2:00 am70 °FMostly cloudy.6 mph88%29.74 "Hg5 mi
1:00 am70 °FMostly cloudy.3 mph88%29.74 "Hg5 mi
12:00 am70 °FMostly cloudy.2 mph88%29.77 "Hg5 mi
11:00 pm
Wed, Jun 19
68 °FMostly cloudy.3 mph88%29.77 "HgN/A
10:00 pm70 °FMostly cloudy.6 mph88%29.77 "HgN/A
9:00 pm70 °FMostly cloudy.6 mph83%29.74 "HgN/A
8:00 pm70 °FPassing clouds.6 mph88%29.74 "HgN/A
7:00 pm70 °FScattered clouds.9 mph83%29.74 "HgN/A
6:00 pm72 °FScattered clouds.14 mph78%29.71 "HgN/A
Weather by CustomWeather, © 2019

See weather overview